This demonstration page uses our WeatherBlox Daily Observations layout. Learn more.

Hourly Observations for June 11, 2020

Temp ( °F °C ) Dew Point ( °F °C ) Humidity (%) Winds ( mph kmh ) Pressure ( in mb ) Visibility ( mi km ) Precip ( " mm )
12:15 am 00:15 Mostly Cloudy 70 21 70 21 100 100 S 9 15 29.92 1013 10 16.0934 0 0
12:35 am 00:35 Cloudy 68 20 68 20 100 100 S 12 19 29.91 1013 3 4.82802 0.19 4.826
12:55 am 00:55 Cloudy 68 20 68 20 100 100 S 9 15 29.91 1013 10 16.0934 0.2 5.08
1:15 am 01:15 Cloudy 68 20 68 20 100 100 S 13 20 29.92 1013 10 16.0934 0.01 0.254
1:35 am 01:35 Cloudy with Thunderstorms 68 20 68 20 100 100 SSW 17 28 29.93 1014 7 11.26538 0.02 0.508
1:55 am 01:55 Cloudy with Nearby Thunderstorms 68 20 68 20 100 100 S 12 19 29.92 1013 10 16.0934 0.02 0.508
2:15 am 02:15 Cloudy 68 20 68 20 100 100 S 10 17 29.92 1013 10 16.0934 0 0
2:35 am 02:35 Cloudy 68 20 68 20 100 100 S 15 24 29.91 1013 10 16.0934 0 0
2:55 am 02:55 Cloudy 68 20 68 20 100 100 S 15 24 29.9 1013 10 16.0934 0 0
3:15 am 03:15 Cloudy 68 20 68 20 100 100 S 16 26 29.9 1013 10 16.0934 0 0
3:35 am 03:35 Cloudy 68 20 68 20 100 100 SSW 15 24 29.9 1013 10 16.0934 0 0
3:55 am 03:55 Cloudy 68 20 68 20 100 100 SSW 15 24 29.91 1013 7 11.26538 0.01 0.254
4:15 am 04:15 Cloudy 68 20 68 20 100 100 SSW 14 22 29.91 1013 7 11.26538 0.01 0.254
4:35 am 04:35 Cloudy 68 20 68 20 100 100 SSW 10 17 29.91 1013 10 16.0934 0.01 0.254
4:55 am 04:55 Cloudy 68 20 68 20 100 100 SSW 12 19 29.92 1013 10 16.0934 0.01 0.254
5:15 am 05:15 Cloudy 68 20 68 20 100 100 SW 8 13 29.93 1014 10 16.0934 0 0
5:35 am 05:35 Cloudy 68 20 68 20 100 100 SW 8 13 29.93 1014 10 16.0934 0 0
5:55 am 05:55 Cloudy 68 20 68 20 100 100 SSW 8 13 29.94 1014 10 16.0934 0 0
6:15 am 06:15 Cloudy 68 20 68 20 100 100 SSW 9 15 29.94 1014 10 16.0934 0 0
6:35 am 06:35 Cloudy 68 20 68 20 100 100 SW 5 7 29.96 1015 10 16.0934 0 0
6:55 am 06:55 Cloudy 68 20 68 20 100 100 WSW 6 9 29.96 1015 10 16.0934 0 0
7:15 am 07:15 Cloudy 70 21 68 20 94 94 WSW 5 7 29.97 1015 10 16.0934 0 0
7:35 am 07:35 Cloudy 70 21 68 20 94 94 SW 6 9 29.97 1015 10 16.0934 0 0
7:55 am 07:55 Cloudy 70 21 68 20 94 94 WSW 5 7 29.99 1016 10 16.0934 0.01 0.254
8:15 am 08:15 Cloudy 70 21 68 20 94 94 WNW 6 9 29.99 1016 10 16.0934 0 0
8:35 am 08:35 Cloudy 70 21 68 20 94 94 NNW 5 7 29.99 1016 10 16.0934 0 0
8:55 am 08:55 Cloudy 68 20 66 19 94 94 NW 5 7 30 1016 10 16.0934 0 0
9:15 am 09:15 Cloudy 66 19 64 18 94 94 SSW 3 6 30.01 1016 5 8.0467 0.03 0.762
9:35 am 09:35 Cloudy 66 19 64 18 94 94 Calm 30.01 1016 10 16.0934 0.05 1.27
9:55 am 09:55 Cloudy 68 20 66 19 94 94 Calm 30.01 1016 10 16.0934 0.05 1.27
10:15 am 10:15 Cloudy 70 21 68 20 94 94 Calm 30.01 1016 10 16.0934 0 0
10:35 am 10:35 Mostly Cloudy 73 23 70 21 89 89 NW 6 9 30.01 1016 10 16.0934 0 0
10:55 am 10:55 Mostly Cloudy 75 24 68 20 78 78 NW 6 9 30.02 1016 10 16.0934 0 0
11:15 am 11:15 Partly Cloudy 77 25 66 19 69 69 NNW 12 19 30.02 1017 10 16.0934 0 0
11:35 am 11:35 Partly Cloudy 77 25 64 18 65 65 N 8 13 30.02 1017 10 16.0934 0 0
11:55 am 11:55 Partly Cloudy 79 26 66 19 65 65 NNW 13 20 30.02 1017 10 16.0934 0 0
12:15 pm 12:15 Partly Cloudy 81 27 66 19 62 62 NW 10 17 30.03 1017 10 16.0934 0 0
12:35 pm 12:35 Partly Cloudy 81 27 66 19 62 62 NW 14 22 30.03 1017 10 16.0934 0 0
12:55 pm 12:55 Mostly Cloudy 81 27 64 18 58 58 NW 9 15 30.03 1017 10 16.0934 0 0
1:15 pm 13:15 Cloudy 81 27 63 17 54 54 NW 8 13 30.03 1017 10 16.0934 0 0
1:35 pm 13:35 Cloudy 79 26 63 17 58 58 N 10 17 30.03 1017 10 16.0934 0 0
1:55 pm 13:55 Cloudy 79 26 63 17 58 58 NNW 13 20 30.04 1017 10 16.0934 0 0
2:15 pm 14:15 Cloudy 79 26 63 17 58 58 NNW 8 13 30.03 1017 10 16.0934 0 0
2:35 pm 14:35 Mostly Cloudy 81 27 64 18 58 58 NW 16 26 30.03 1017 10 16.0934 0 0
2:55 pm 14:55 Mostly Cloudy 81 27 63 17 54 54 NNW 15 24 30.03 1017 10 16.0934 0 0
3:15 pm 15:15 Cloudy 81 27 63 17 54 54 NW 12 19 30.04 1017 10 16.0934 0 0
3:35 pm 15:35 Mostly Cloudy 81 27 63 17 54 54 NNW 12 19 30.04 1017 10 16.0934 0 0
3:55 pm 15:55 Mostly Cloudy 81 27 63 17 54 54 NW 12 19 30.04 1017 10 16.0934 0 0
4:15 pm 16:15 Mostly Cloudy 81 27 63 17 54 54 NNW 14 22 30.04 1017 10 16.0934 0 0
4:35 pm 16:35 Mostly Cloudy 81 27 63 17 54 54 NNW 12 19 30.04 1017 10 16.0934 0 0
4:55 pm 16:55 Mostly Cloudy 81 27 63 17 54 54 NNW 12 19 30.04 1017 10 16.0934 0 0
5:15 pm 17:15 Mostly Cloudy 79 26 61 16 54 54 NNW 10 17 30.04 1017 10 16.0934 0 0
5:35 pm 17:35 Partly Cloudy 79 26 61 16 54 54 NNW 10 17 30.04 1017 10 16.0934 0 0
5:55 pm 17:55 Mostly Cloudy 81 27 61 16 51 51 N 7 11 30.05 1018 10 16.0934 0 0
6:15 pm 18:15 Cloudy 81 27 61 16 51 51 NNW 7 11 30.04 1017 10 16.0934 0 0
6:35 pm 18:35 Cloudy 81 27 61 16 51 51 NNW 13 20 30.03 1017 10 16.0934 0 0
6:55 pm 18:55 Mostly Cloudy 81 27 61 16 51 51 NNW 10 17 30.05 1018 10 16.0934 0 0
7:15 pm 19:15 Partly Cloudy 79 26 61 16 54 54 NNW 12 19 30.06 1018 10 16.0934 0 0
7:35 pm 19:35 Partly Cloudy 81 27 61 16 51 51 NNW 12 19 30.06 1018 10 16.0934 0 0
7:55 pm 19:55 Partly Cloudy 79 26 61 16 54 54 NW 8 13 30.06 1018 10 16.0934 0 0
8:15 pm 20:15 Partly Cloudy 77 25 61 16 57 57 NNW 8 13 30.07 1018 10 16.0934 0 0
8:35 pm 20:35 Partly Cloudy 77 25 61 16 57 57 NW 6 9 30.08 1019 10 16.0934 0 0
8:55 pm 20:55 Mostly Cloudy 75 24 61 16 61 61 NNW 5 7 30.09 1019 10 16.0934 0 0
9:15 pm 21:15 Partly Cloudy 75 24 61 16 61 61 NNW 7 11 30.1 1019 10 16.0934 0 0
9:35 pm 21:35 Clear 73 23 61 16 65 65 NNW 6 9 30.11 1020 10 16.0934 0 0
9:55 pm 21:55 Clear 72 22 61 16 69 69 NW 3 6 30.12 1020 10 16.0934 0 0
10:15 pm 22:15 Clear 70 21 63 17 78 78 NW 5 7 30.12 1020 10 16.0934 0 0
10:35 pm 22:35 Clear 72 22 61 16 69 69 NNW 3 6 30.12 1020 10 16.0934 0 0
10:55 pm 22:55 Clear 72 22 61 16 69 69 NW 3 6 30.13 1020 10 16.0934 0 0
11:15 pm 23:15 Clear 70 21 61 16 73 73 Calm 30.13 1020 10 16.0934 0 0
11:35 pm 23:35 Mostly Cloudy 70 21 61 16 73 73 Calm 30.14 1021 10 16.0934 0 0
11:55 pm 23:55 Cloudy 68 20 63 17 83 83 Calm 30.14 1021 10 16.0934 0 0

Powered by AerisWeather